N1LTP Weather Reports


time (UTC)temp
F
wind
direction
speed
knots
gust
knots
rain 1hr
in
rain 24hr
in
rain mn
in
humidity
%
barometer
mb
20260902231605 68 74 0.0 0.0 0.00 0.00 0.00 75 1019.8
20260902230046 68 74 0.0 0.0 0.00 0.00 0.00 74 1020.0
20260902224559 69 74 0.0 3.5 0.00 0.00 0.00 72 1020.0
20260902223052 69 75 0.9 4.3 0.00 0.00 0.00 71 1019.9
20260902221601 70 88 0.0 3.5 0.00 0.00 0.00 71 1019.8
20260902220055 71 54 0.9 2.6 0.00 0.00 0.00 71 1019.6
20260902214543 71 44 0.9 2.6 0.00 0.01 0.00 71 1019.4
20260902213043 72 63 0.0 1.7 0.00 0.01 0.00 70 1019.3
20260902211542 73 59 0.0 3.5 0.00 0.01 0.00 68 1019.3
20260902210046 73 81 1.7 4.3 0.00 0.01 0.00 66 1019.6
20260902204547 73 65 1.7 5.2 0.00 0.03 0.00 63 1019.8
20260902203043 74 76 0.0 5.2 0.00 0.03 0.00 62 1019.6
20260902201549 74 102 0.0 1.7 0.00 0.03 0.00 62 1019.6
20260902200039 74 99 0.9 8.7 0.00 0.03 0.00 61 1019.6
20260902194538 74 80 1.7 4.3 0.00 0.05 0.00 60 1019.8
20260902193044 74 64 2.6 7.0 0.00 0.05 0.00 62 1020.0
20260902191537 74 138 0.0 5.2 0.00 0.05 0.00 62 1020.1
20260902190036 74 66 1.7 4.3 0.00 0.05 0.00 61 1020.0
20260902184535 74 140 0.0 3.5 0.00 0.07 0.00 64 1020.1
20260902183039 74 90 0.9 4.3 0.00 0.07 0.00 65 1020.0
20260902181533 74 36 0.9 6.1 0.00 0.07 0.00 65 1019.9
20260902180031 74 79 0.9 6.1 0.00 0.07 0.00 66 1019.8
20260902174529 74 59 0.9 3.5 0.00 0.12 0.00 69 1020.1
20260902173029 74 55 0.0 3.5 0.00 0.12 0.00 67 1020.3
20260902171530 73 74 0.0 3.5 0.00 0.12 0.00 68 1020.4
20260902170026 73 101 0.0 2.6 0.00 0.12 0.00 69 1020.5
20260902164532 73 62 0.9 2.6 0.00 0.12 0.00 70 1020.6
20260902163031 73 58 0.9 5.2 0.00 0.12 0.00 71 1020.5
20260902161523 73 56 0.9 2.6 0.00 0.12 0.00 71 1020.8
20260902160021 73 106 0.9 8.7 0.00 0.12 0.00 73 1020.9
20260902154522 73 52 0.9 7.0 0.00 0.12 0.00 73 1021.3
20260902153039 72 51 1.7 6.1 0.00 0.12 0.00 72 1021.3
20260902151515 72 43 0.9 5.2 0.00 0.12 0.00 74 1021.2
20260902150011 70 132 0.0 7.8 0.00 0.12 0.00 78 1021.3
20260902144506 69 148 0.0 3.5 0.00 0.13 0.00 80 1021.3
20260902143002 68 79 0.0 2.6 0.00 0.13 0.00 81 1021.0
20260902141600 67 76 0.0 3.5 0.00 0.13 0.00 84 1020.8
20260902140056 66 81 0.9 7.0 0.00 0.13 0.00 86 1020.7
20260902134556 65 81 0.0 1.7 0.00 0.13 0.00 89 1020.6
20260902133051 64 81 0.9 2.6 0.00 0.13 0.00 91 1020.4
20260902131549 64 94 0.0 1.7 0.00 0.13 0.00 92 1020.5
20260902130048 64 66 0.9 4.3 0.00 0.13 0.00 93 1020.6
20260902124545 64 82 1.7 6.1 0.00 0.13 0.00 93 1020.7
20260902123051 63 84 0.9 5.2 0.00 0.13 0.00 93 1020.7
20260902121540 62 355 0.0 1.7 0.00 0.13 0.00 93 1020.9
20260902120036 61 355 0.0 0.9 0.00 0.13 0.00 93 1021.0
20260902114533 60 355 0.0 1.7 0.00 0.13 0.00 93 1021.1
20260902113036 59 355 0.0 0.0 0.00 0.13 0.00 92 1021.0
20260902111530 59 355 0.0 0.0 0.00 0.13 0.00 92 1020.9
20260902110038 59 355 0.0 0.9 0.00 0.13 0.00 92 1020.8
20260902104527 59 355 0.0 0.0 0.00 0.13 0.00 92 1020.4
20260902103025 59 355 0.0 0.9 0.00 0.13 0.00 91 1020.4
20260902101527 59 355 0.0 0.0 0.00 0.13 0.00 92 1020.2
20260902100021 59 355 0.0 0.0 0.00 0.13 0.00 92 1019.9
20260902094523 59 355 0.0 0.0 0.00 0.13 0.00 92 1019.9
20260902093029 59 355 0.0 0.9 0.00 0.13 0.00 92 1019.7
20260902091519 59 355 0.0 0.0 0.00 0.13 0.00 92 1019.7
20260902090017 59 355 0.0 0.9 0.00 0.13 0.00 91 1019.5
20260902084520 59 355 0.0 0.9 0.00 0.13 0.00 91 1019.7
20260902083015 59 355 0.0 0.0 0.00 0.13 0.00 91 1019.6
20260902081514 60 355 0.0 0.0 0.00 0.13 0.00 92 1019.4
20260902080015 60 355 0.0 0.0 0.00 0.13 0.00 92 1019.4
20260902074513 60 355 0.0 0.9 0.00 0.13 0.00 92 1019.7
20260902073014 59 355 0.0 0.0 0.00 0.13 0.00 91 1019.6
20260902071510 59 355 0.0 0.9 0.00 0.13 0.00 91 1019.4
20260902070015 59 355 0.0 0.0 0.00 0.13 0.00 91 1019.4
20260902064509 59 355 0.0 0.0 0.00 0.13 0.00 91 1019.2
20260902063008 59 355 0.0 0.9 0.00 0.13 0.00 91 1019.2
20260902061522 59 355 0.0 0.9 0.00 0.13 0.00 92 1019.2
20260902060007 59 355 0.0 0.9 0.00 0.13 0.00 92 1019.5
20260902054510 59 355 0.0 0.9 0.00 0.13 0.00 91 1019.4
20260902053006 59 355 0.0 0.9 0.00 0.13 0.00 91 1019.2
20260902051505 59 355 0.0 0.0 0.00 0.13 0.00 91 1019.2
20260902050006 59 355 0.0 0.9 0.00 0.13 0.00 91 1019.3
20260902044502 60 355 0.0 0.0 0.00 0.13 0.00 91 1019.1
20260902043108 60 355 0.0 1.7 0.00 0.13 0.00 91 1019.1
20260902041559 60 355 0.0 0.0 0.00 0.13 0.00 91 1018.8
20260902040057 60 355 0.0 0.0 0.00 0.13 0.00 91 1018.4
20260902034558 60 355 0.0 0.0 0.00 0.13 0.13 91 1018.5
20260902033058 60 355 0.0 0.0 0.00 0.13 0.13 91 1018.4
20260902031554 60 355 0.0 0.0 0.00 0.13 0.13 91 1018.4
20260902030053 60 355 0.0 0.9 0.00 0.13 0.13 91 1018.3
20260902024553 60 355 0.0 0.0 0.00 0.13 0.13 91 1018.4
20260902023106 60 355 0.0 0.0 0.00 0.13 0.13 91 1018.3
20260902021550 60 355 0.0 0.0 0.00 0.13 0.13 90 1018.1
20260902020049 60 355 0.0 0.0 0.00 0.13 0.13 90 1018.1
20260902014549 60 355 0.0 0.9 0.00 0.13 0.13 90 1018.4
20260902013053 61 355 0.0 0.0 0.00 0.13 0.13 90 1018.2
20260902011546 61 355 0.0 0.0 0.00 0.13 0.13 90 1018.0
20260902010045 61 355 0.0 0.0 0.00 0.13 0.13 90 1018.3
20260902004544 61 355 0.0 0.0 0.00 0.13 0.13 90 1018.0
20260902003044 61 355 0.0 0.0 0.00 0.13 0.13 90 1017.9
20260902001559 61 355 0.0 0.9 0.00 0.13 0.13 90 1017.9
20260902000044 61 355 0.0 0.0 0.00 0.13 0.13 90 1017.9
20260901234540 61 355 0.0 0.0 0.00 0.13 0.13 90 1017.7
20260901233040 61 355 0.0 0.0 0.00 0.13 0.13 90 1017.6